This is the latest recevied weather packets stored in our database for station/object WX2NJ. If no packets are shown the sender has not sent any weather packets the latest 10 day(s).
| Time | Temp. | Humidity | Pressure | Rain* | Wind** | Luminosity | Snow |
|---|---|---|---|---|---|---|---|
| 1777731911 | 15° C | 64% | 1015.5 hPa | 0 mm | - | 158 W/m² | - |
| 1777731608 | 15° C | 62% | 1015.7 hPa | 0 mm | - | 171 W/m² | - |
| 1777731306 | 14.44° C | 63% | 1015.8 hPa | 0 mm | - | 180 W/m² | - |
| 1777731003 | 15° C | 64% | 1015.4 hPa | 0 mm | - | 181 W/m² | - |
| 1777730702 | 15° C | 64% | 1015.5 hPa | 0 mm | - | 175 W/m² | - |
| 1777730397 | 14.44° C | 65% | 1015.6 hPa | 0 mm | - | 171 W/m² | - |
| 1777730093 | 14.44° C | 65% | 1015.6 hPa | 0 mm | - | 160 W/m² | - |
| 1777729790 | 14.44° C | 66% | 1015.6 hPa | 0 mm | - | 176 W/m² | - |
| 1777729487 | 14.44° C | 65% | 1015.6 hPa | 0 mm | - | 175 W/m² | - |
| 1777729184 | 14.44° C | 65% | 1015.6 hPa | 0 mm | - | 161 W/m² | - |
| 1777728880 | 14.44° C | 66% | 1015.5 hPa | 0 mm | - | 166 W/m² | - |
| 1777728577 | 14.44° C | 65% | 1015.6 hPa | 0 mm | - | 180 W/m² | - |
| 1777728274 | 14.44° C | 65% | 1015.8 hPa | 0 mm | - | 185 W/m² | - |
| 1777727972 | 14.44° C | 66% | 1015.8 hPa | 0 mm | - | 149 W/m² | - |
| 1777727668 | 14.44° C | 68% | 1015.8 hPa | 0 mm | - | 150 W/m² | - |
| 1777727365 | 13.89° C | 70% | 1015.9 hPa | 0 mm | - | 130 W/m² | - |
| 1777727063 | 14.44° C | 69% | 1015.7 hPa | 0 mm | - | 135 W/m² | - |
| 1777726760 | 13.89° C | 69% | 1015.8 hPa | 0 mm | - | 142 W/m² | - |
| 1777726457 | 13.89° C | 71% | 1016 hPa | 0 mm | - | 175 W/m² | - |
| 1777726154 | 13.89° C | 70% | 1016 hPa | 0 mm | - | 120 W/m² | - |
| 1777725850 | 13.89° C | 72% | 1015.9 hPa | 0 mm | - | 150 W/m² | - |
| 1777725549 | 13.33° C | 73% | 1015.7 hPa | 0 mm | - | 150 W/m² | - |
| 1777725245 | 13.33° C | 74% | 1015.9 hPa | 0 mm | - | 166 W/m² | - |
| 1777724943 | 13.33° C | 74% | 1015.9 hPa | 0 mm | - | 146 W/m² | - |
| 1777724639 | 13.33° C | 75% | 1016 hPa | 0 mm | - | 136 W/m² | - |
* Rain latest hour (hover to see other rain measurements)
** Current wind speed in m/s (hover to see current wind gust speed)